Location: Haliburton Scout Reserve
(45.0900°N, 78.3200°W)
Time: 16:40:29
(UTC-04:00)

JY1SAT - Pass Details

Date: 23 June 2024
Orbit: 536 x 549 km, 97.5° (Epoch: 11 July)

Event Time Altitude Azimuth Distance (km) Brightness Sun altitude
Exits shadow 21:48:55 - 153° (SSE) 2,032 ? -6.9°
Reaches altitude 10° 21:49:26 10° 152° (SSE) 1,815 ? -7.0°
Maximum altitude 21:53:17 57° 74° (ENE) 655 ? -7.5°
Drops below altitude 10° 21:57:11 10° 356° (N) 1,836 ? -7.9°
Sets 21:59:21 0° 352° (N) 2,736 ? -8.2°
